Terminal Aerodrome Forecast
Issued by NWS

Current Version | Previous Version | Text Only | Print | Product List | Glossary On
Versions: 1 2 3 4 5 6 7 8 9 10 11 12 13
000
FTUS45 KREV 272300
TAFMMH
TAF
KMMH 272320Z 2800/2824 27015G25KT P6SM VCSH SCT050 BKN100
     FM280200 25010KT 4SM -SHSN BKN025 OVC040
     FM280600 26006KT 6SM -SHSN SCT025 OVC040
     FM282100 VRB04KT 2SM -SN SCT015 OVC025=

USA.gov is the U.S. government's official web portal to all federal, state and local government web resources and services.